Weather History for Chippewa, MI

Change the Weather History Date:

Saturday, March 9, 2013

  Actual Average Record
Temperature  
Mean Temperature 29 °F -  
Max Temperature 37 °F 36 °F 43 °F (1981)
Min Temperature 21 °F 8 °F -22 °F (1984)
Degree Days  
Heating Degree Days 36    
Moisture  
Dew Point 27 °F    
Average Humidity 88    
Maximum Humidity 100    
Minimum Humidity 60    
Precipitation  
Precipitation 0.04 in - - ()
Sea Level Pressure  
Sea Level Pressure 30.18 in    
Wind  
Wind Speed 10 mph (SE)    
Max Wind Speed 24 mph    
Max Gust Speed 28 mph    
Visibility 9 miles    
Events      
Averages and records for this station are not official NWS values.
T = Trace of Precipitation, MM = Missing Value Source: NWS Daily Summary

Daily Weather History Graph

Daily Weather History Graph

Search for Another Location

Airport:

Trip Planner

Search our weather history database for the weather conditions in past years. The results will help you decide how hot, cold, wet, or windy it might be!

Date:

Astronomy

Mar. 09, 2013 Rise Set
Actual Time 7:01 AM EST 6:35 PM EST
Civil Twilight 6:31 AM EST 7:05 PM EST
Nautical Twilight 5:57 AM EST 7:40 PM EST
Astronomical Twilight 5:21 AM EST 8:15 PM EST
Moon 5:31 AM EST (3/9) 4:32 PM EST (3/9)
Length of Visible Light 12h 34m
Length of Day
11h 34m
Waning Crescent, 5% of the Moon is Illuminated
Mar 9
Waning Crescent
Mar 11
New
Mar 19
First Quarter
Mar 27
Full
Apr 3
Last Quarter

Hourly Weather History & Observations

Time (EST) Temp. Windchill Dew Point Humidity Pressure Visibility Wind Dir Wind Speed Gust Speed Precip Events Conditions
12:15 AM 23.0 °F 15.8 °F 21.2 °F 93% 30.33 in 10.0 mi SSE 5.8 mph - N/A   Clear
12:35 AM 24.8 °F 16.9 °F 23.0 °F 93% 30.32 in 10.0 mi SSE 6.9 mph - N/A   Clear
12:55 AM 24.8 °F 17.9 °F 23.0 °F 93% 30.32 in 10.0 mi SSE 5.8 mph - N/A   Clear
1:15 AM 23.0 °F 17.0 °F 23.0 °F 100% 30.32 in 10.0 mi SSE 4.6 mph - N/A   Clear
1:35 AM 24.8 °F 16.9 °F 24.8 °F 100% 30.31 in 10.0 mi SSE 6.9 mph - N/A   Clear
1:55 AM 24.8 °F 16.1 °F 24.8 °F 100% 30.32 in 10.0 mi SSE 8.1 mph - N/A   Clear
2:15 AM 23.0 °F 14.7 °F 23.0 °F 100% 30.31 in 10.0 mi SSE 6.9 mph - N/A   Clear
2:35 AM 23.0 °F 14.7 °F 23.0 °F 100% 30.31 in 10.0 mi SSE 6.9 mph - N/A   Clear
2:55 AM 23.0 °F 15.8 °F 23.0 °F 100% 30.30 in 10.0 mi SSE 5.8 mph - N/A   Clear
3:15 AM 24.8 °F 16.9 °F 24.8 °F 100% 30.30 in 10.0 mi SSE 6.9 mph - N/A   Clear
3:35 AM 24.8 °F 16.1 °F 24.8 °F 100% 30.29 in 10.0 mi SSE 8.1 mph - N/A   Clear
3:55 AM 23.0 °F 13.9 °F 23.0 °F 100% 30.29 in 10.0 mi SSE 8.1 mph - N/A   Clear
4:15 AM 23.0 °F 12.4 °F 21.2 °F 93% 30.29 in 10.0 mi SE 10.4 mph - N/A   Clear
4:35 AM 23.0 °F 12.4 °F 21.2 °F 93% 30.29 in 10.0 mi SSE 10.4 mph - N/A   Clear
4:55 AM 21.2 °F 10.9 °F 21.2 °F 100% 30.28 in 10.0 mi SSE 9.2 mph - N/A   Clear
5:15 AM 23.0 °F 13.9 °F 21.2 °F 93% 30.28 in 10.0 mi SE 8.1 mph - N/A   Clear
5:35 AM 23.0 °F 13.1 °F 21.2 °F 93% 30.28 in 10.0 mi SE 9.2 mph - N/A   Clear
5:55 AM 23.0 °F 13.9 °F 21.2 °F 93% 30.29 in 10.0 mi SE 8.1 mph - N/A   Clear
6:15 AM 23.0 °F 13.9 °F 23.0 °F 100% 30.28 in 10.0 mi SE 8.1 mph - N/A   Clear
6:35 AM 23.0 °F 14.7 °F 23.0 °F 100% 30.28 in 10.0 mi SE 6.9 mph - N/A   Clear
6:55 AM 23.0 °F 12.4 °F 21.2 °F 93% 30.29 in 0.5 mi SE 10.4 mph - N/A   Overcast
7:15 AM 24.8 °F 16.1 °F 23.0 °F 93% 30.28 in 0.2 mi SE 8.1 mph - N/A   Overcast
7:35 AM 24.8 °F 16.1 °F 24.8 °F 100% 30.27 in 3.0 mi SE 8.1 mph - N/A   Overcast
7:55 AM 23.0 °F 12.4 °F 23.0 °F 100% 30.27 in 9.0 mi SE 10.4 mph - N/A   Overcast
8:15 AM 24.8 °F 16.1 °F 23.0 °F 93% 30.27 in 10.0 mi SE 8.1 mph - N/A   Overcast
8:35 AM 24.8 °F 14.6 °F 23.0 °F 93% 30.27 in 10.0 mi SE 10.4 mph - N/A   Overcast
8:55 AM 26.6 °F 16.2 °F 26.6 °F 100% 30.27 in 10.0 mi SSE 11.5 mph - N/A   Overcast
9:15 AM 26.6 °F 16.8 °F 26.6 °F 100% 30.27 in 10.0 mi SSE 10.4 mph - N/A   Overcast
9:35 AM 28.4 °F 19.1 °F 26.6 °F 93% 30.26 in 10.0 mi SE 10.4 mph - N/A   Overcast
9:55 AM 30.2 °F 21.3 °F 28.4 °F 93% 30.25 in 10.0 mi SE 10.4 mph - N/A   Overcast
10:15 AM 32.0 °F 23.6 °F 28.4 °F 87% 30.25 in 10.0 mi SSE 10.4 mph - N/A   Overcast
10:35 AM 32.0 °F 23.6 °F 28.4 °F 87% 30.24 in 10.0 mi SE 10.4 mph - N/A   Mostly Cloudy
10:55 AM 33.8 °F 27.0 °F 28.4 °F 81% 30.24 in 10.0 mi SE 8.1 mph - N/A   Partly Cloudy
11:15 AM 33.8 °F 26.4 °F 28.4 °F 81% 30.23 in 10.0 mi SE 9.2 mph - N/A   Clear
11:35 AM 35.6 °F 28.0 °F 26.6 °F 70% 30.23 in 10.0 mi SE 10.4 mph - N/A   Clear
11:55 AM 35.6 °F 29.2 °F 26.6 °F 70% 30.23 in 10.0 mi SE 8.1 mph - N/A   Clear
12:15 PM 35.6 °F 28.6 °F 26.6 °F 70% 30.23 in 10.0 mi SE 9.2 mph - N/A   Clear
12:35 PM 35.6 °F 28.0 °F 26.6 °F 70% 30.23 in 10.0 mi SE 10.4 mph - N/A   Clear
12:55 PM 37.4 °F 29.8 °F 26.6 °F 65% 30.21 in 10.0 mi SE 11.5 mph - N/A   Clear
1:15 PM 37.4 °F 29.8 °F 26.6 °F 65% 30.20 in 10.0 mi SE 11.5 mph - N/A   Clear
1:35 PM 37.4 °F 28.9 °F 26.6 °F 65% 30.19 in 10.0 mi SE 13.8 mph - N/A   Scattered Clouds
1:55 PM 37.4 °F 28.5 °F 24.8 °F 60% 30.18 in 10.0 mi SE 15.0 mph - N/A   Scattered Clouds
2:15 PM 37.4 °F 30.8 °F 26.6 °F 65% 30.17 in 10.0 mi ESE 9.2 mph - N/A   Clear
2:35 PM 37.4 °F 29.8 °F 26.6 °F 65% 30.15 in 10.0 mi ESE 11.5 mph - N/A   Clear
2:55 PM 37.4 °F 29.3 °F 26.6 °F 65% 30.14 in 10.0 mi ESE 12.7 mph - N/A   Clear
3:15 PM 37.4 °F 29.3 °F 28.4 °F 70% 30.14 in 10.0 mi ESE 12.7 mph - N/A   Partly Cloudy
3:35 PM 37.4 °F 27.8 °F 28.4 °F 70% 30.14 in 10.0 mi SE 17.3 mph 21.9 mph N/A   Mostly Cloudy
3:55 PM 37.4 °F 28.9 °F 30.2 °F 75% 30.11 in 10.0 mi ESE 13.8 mph - N/A   Overcast
4:15 PM 37.4 °F 29.3 °F 30.2 °F 75% 30.11 in 10.0 mi East 12.7 mph 18.4 mph N/A   Overcast
4:35 PM 35.6 °F 27.1 °F 30.2 °F 81% 30.11 in 10.0 mi East 12.7 mph - N/A   Overcast
4:55 PM 35.6 °F 27.1 °F 30.2 °F 81% 30.09 in 10.0 mi East 12.7 mph - N/A   Overcast
5:15 PM 35.6 °F 26.2 °F 32.0 °F 87% 30.07 in 10.0 mi East 15.0 mph - N/A   Overcast
5:35 PM 33.8 °F 23.2 °F 32.0 °F 93% 30.06 in 10.0 mi East 17.3 mph - N/A   Overcast
5:55 PM 33.8 °F 23.9 °F 32.0 °F 93% 30.05 in 10.0 mi ESE 15.0 mph - N/A   Overcast
6:15 PM 33.8 °F 24.8 °F 32.0 °F 93% 30.05 in 10.0 mi ESE 12.7 mph - N/A   Overcast
6:35 PM 35.6 °F 26.2 °F 30.2 °F 81% 30.06 in 10.0 mi SE 15.0 mph 19.6 mph N/A   Overcast
6:55 PM 35.6 °F 25.9 °F 30.2 °F 81% 30.05 in 10.0 mi ESE 16.1 mph 23.0 mph N/A   Overcast
7:15 PM 35.6 °F 24.5 °F 28.4 °F 75% 30.04 in 10.0 mi SE 20.7 mph 26.5 mph N/A   Overcast
7:35 PM 35.6 °F 23.7 °F 28.4 °F 75% 30.02 in 10.0 mi ESE 24.2 mph - N/A   Overcast
7:55 PM 35.6 °F 24.2 °F 30.2 °F 81% 30.03 in 10.0 mi SE 21.9 mph 27.6 mph N/A   Overcast
8:15 PM 33.8 °F 23.9 °F 30.2 °F 87% 30.05 in 10.0 mi SE 15.0 mph 25.3 mph N/A   Overcast
8:35 PM 33.8 °F 22.5 °F 30.2 °F 87% 30.02 in 10.0 mi ESE 19.6 mph 24.2 mph N/A   Overcast
8:55 PM 33.8 °F 22.2 °F 32.0 °F 93% 30.02 in 10.0 mi ESE 20.7 mph 24.2 mph N/A   Overcast
9:15 PM 33.8 °F 22.5 °F 32.0 °F 93% 30.01 in 10.0 mi SE 19.6 mph 25.3 mph N/A   Overcast
9:35 PM 33.8 °F 23.2 °F 32.0 °F 93% 30.01 in 10.0 mi SE 17.3 mph - N/A   Overcast
9:55 PM 33.8 °F 23.2 °F 32.0 °F 93% 30.01 in 10.0 mi SE 17.3 mph 24.2 mph N/A   Overcast
10:15 PM 33.8 °F 22.5 °F 33.8 °F 100% 30.01 in 5.0 mi SE 19.6 mph - N/A   Overcast
10:35 PM 33.8 °F 22.8 °F 33.8 °F 100% 30.00 in 1.5 mi SE 18.4 mph - N/A   Overcast
10:55 PM 33.8 °F 22.2 °F 33.8 °F 100% 29.99 in 1.0 mi SE 20.7 mph - N/A   Overcast
11:15 PM 33.8 °F 22.5 °F 33.8 °F 100% 29.98 in 1.2 mi SE 19.6 mph - 0.01 in   Overcast
11:35 PM 33.8 °F 22.8 °F 33.8 °F 100% 29.97 in 2.0 mi SE 18.4 mph - 0.03 in   Overcast
11:55 PM 33.8 °F 22.8 °F 33.8 °F 100% 29.96 in 3.0 mi SE 18.4 mph - 0.04 in   Overcast